Home > Weather > Cancún > Past weeks

Flag for Mexico Past Weather in Cancún, Quintana Roo, Mexico — Yesterday and Last 2 Weeks

Now
84 °F

Partly sunny.


Feels Like: 94 °F
Forecast: 81 / 90 °F
Wind: 5 mph from North

Location: Aerop. Internacional Merida - Yuc

Current Time: Aug 25, 2016 at 8:49:30 PM

Latest Report: Aug 25, 2016 at 6:51 PM


Visibility: 7 mi

Pressure: 29.90 "Hg

Humidity: 79%

Dew Point: 77 °F

Location of CancúnLocation

Past Weather in Cancún — Graph

°F

Cancún Temperature Yesterday

Maximum temperature yesterday: 95 °F (at 1:48 PM)
Minimum temperature yesterday: 77 °F (at 6:47 AM)
Average temperature yesterday: 85 °F

High & Low Weather Summary for the Past Weeks

 TemperatureHumidityPressure
High99 °F (Aug 23, 2:45 PM)100% (Aug 11, 7:16 AM)30.12 "Hg (Aug 11, 7:16 AM)
Low73 °F (Aug 14, 3:48 AM)35% (Aug 23, 2:45 PM)29.82 "Hg (Aug 13, 5:53 PM)
Average83 °F78%29.96 "Hg
* Reported Aug 10 7:46 PM — Aug 25 6:51 PM, Cancún, Weather by CustomWeather, © 2016

Note: Actual official high and low records may vary slightly from our data, if they occured in-between our weather recording intervals... More about our weather records

Advertising

Cancún Weather History for the Previous 24 Hours

Scroll right to see more
 ConditionsComfort  
Time TempWeatherWind HumidityBarometerVisibility
6:51 PM
Thu, Aug 25
84 °FPartly sunny.5 mph79%29.90 "Hg7 mi
2:44 PM90 °FBroken clouds.7 mph71%29.90 "Hg7 mi
1:53 PM81 °FPartly sunny.8 mph94%29.92 "Hg7 mi
1:43 PM81 °FLight rain. Partly sunny.16 mph89%29.93 "Hg4 mi
12:48 PM95 °FPartly sunny.5 mph53%29.96 "Hg7 mi
11:44 AM93 °FPartly sunny.5 mph53%29.97 "Hg7 mi
10:49 AM90 °FPartly sunny.7 mph63%29.98 "Hg7 mi
10:15 AM88 °FPartly sunny.5 mph66%29.98 "Hg7 mi
9:46 AM86 °FPartly sunny.5 mph70%30.08 "Hg7 mi
9:18 AM86 °FPartly sunny.6 mph75%29.98 "Hg7 mi
7:46 AM81 °FScattered clouds.No wind89%29.97 "Hg6 mi
6:48 AM75 °FPassing clouds.No wind94%30.06 "Hg6 mi
5:50 AM77 °FClear.No wind94%29.95 "Hg7 mi
5:00 AM77 °FClear.No wind94%29.95 "Hg7 mi
3:51 AM77 °FClear.No wind94%29.99 "Hg7 mi
2:48 AM79 °FPassing clouds.No wind94%29.96 "Hg7 mi
1:48 AM79 °FPassing clouds.5 mph89%29.99 "Hg7 mi
12:46 AM81 °FPassing clouds.6 mph84%30.01 "Hg7 mi
11:46 PM
Wed, Aug 24
81 °FPassing clouds.6 mph84%30.00 "Hg7 mi
10:49 PM82 °FPassing clouds.7 mph84%30.00 "Hg7 mi
9:47 PM82 °FPassing clouds.6 mph79%29.98 "Hg7 mi
Weather by CustomWeather, © 2016

See weather overviewHow to use our weather pages